Location: Gloden
(48.4833°N, 15.3167°E)
Time: 14:37:19
(UTC+00:00)

Cosmos 1354 Rocket - Pass Details

Date: 15 December 2019
Orbit: 763 x 784 km, 74.0° (Epoch: 29 January)

Event Time Altitude Azimuth Distance (km) Brightness Sun altitude
Exits shadow 05:39:32 - 336° (NNW) 2,872 6.5 -10.0°
Reaches altitude 10° 05:40:55 10° 336° (NNW) 2,338 6.1 -9.8°
Maximum altitude 05:46:14 85° 249° (WSW) 790 4.0 -9.0°
Drops below altitude 10° 05:51:33 10° 161° (SSE) 2,332 7.2 -8.2°
Sets 05:53:56 0° 161° (SSE) 3,258 8.0 -7.9°
